TimeCST,TemperatureF,Dew PointF,Humidity,Sea Level PressureIn,VisibilityMPH,Wind Direction,Wind SpeedMPH,Gust SpeedMPH,PrecipitationIn,Events,Conditions,WindDirDegrees,DateUTC
12:56 AM,28.9,21.9,75,30.36,-9999.0,WNW,4.6,-,N/A,,Unknown,300,2013-01-06 06:56:00
1:56 AM,27.0,21.9,81,30.37,-9999.0,WNW,5.8,-,N/A,,Unknown,300,2013-01-06 07:56:00
2:56 AM,27.0,21.0,78,30.38,-9999.0,WNW,5.8,-,N/A,,Unknown,290,2013-01-06 08:56:00
3:56 AM,25.0,19.9,81,30.39,-9999.0,WNW,4.6,-,N/A,,Unknown,300,2013-01-06 09:56:00
4:56 AM,23.0,19.0,85,30.39,-9999.0,NW,4.6,-,N/A,,Unknown,320,2013-01-06 10:56:00
5:56 AM,24.1,19.9,84,30.39,-9999.0,North,4.6,-,N/A,,Unknown,350,2013-01-06 11:56:00
6:56 AM,21.0,17.1,85,30.42,-9999.0,NNW,3.5,-,N/A,,Unknown,340,2013-01-06 12:56:00
7:56 AM,23.0,18.0,81,30.43,-9999.0,NNW,3.5,-,N/A,,Unknown,340,2013-01-06 13:56:00
8:56 AM,26.1,21.0,81,30.44,-9999.0,NNW,4.6,-,N/A,,Unknown,340,2013-01-06 14:56:00
9:56 AM,32.0,23.0,69,30.44,-9999.0,WSW,5.8,-,N/A,,Unknown,240,2013-01-06 15:56:00
10:56 AM,37.0,23.0,57,30.45,-9999.0,West,3.5,-,N/A,,Unknown,270,2013-01-06 16:56:00
11:56 AM,41.0,24.1,51,30.44,-9999.0,Calm,Calm,-,N/A,,Unknown,0,2013-01-06 17:56:00
12:56 PM,46.0,24.1,42,30.37,-9999.0,Calm,Calm,-,N/A,,Unknown,0,2013-01-06 18:56:00
1:56 PM,48.9,23.0,36,30.34,-9999.0,SW,6.9,-,N/A,,Unknown,220,2013-01-06 19:56:00
2:56 PM,50.0,21.9,33,30.32,-9999.0,SW,9.2,-,N/A,,Unknown,220,2013-01-06 20:56:00
3:56 PM,51.1,23.0,33,30.31,-9999.0,South,8.1,-,N/A,,Unknown,190,2013-01-06 21:56:00
4:56 PM,48.9,25.0,39,30.31,-9999.0,South,6.9,-,N/A,,Unknown,190,2013-01-06 22:56:00
5:56 PM,44.1,21.9,42,30.30,-9999.0,South,8.1,-,N/A,,Unknown,180,2013-01-06 23:56:00
6:56 PM,41.0,21.9,47,30.30,-9999.0,South,6.9,-,N/A,,Unknown,170,2013-01-07 00:56:00
7:56 PM,37.9,21.9,53,30.30,-9999.0,SSE,8.1,-,N/A,,Unknown,160,2013-01-07 01:56:00
8:56 PM,36.0,21.9,57,30.30,-9999.0,South,9.2,-,N/A,,Unknown,170,2013-01-07 02:56:00
9:56 PM,33.1,21.9,64,30.29,-9999.0,South,8.1,-,N/A,,Unknown,170,2013-01-07 03:56:00
10:56 PM,32.0,21.9,66,30.27,-9999.0,South,10.4,-,N/A,,Unknown,180,2013-01-07 04:56:00
11:56 PM,30.0,21.0,69,30.27,-9999.0,South,6.9,-,N/A,,Unknown,180,2013-01-07 05:56:00